• In Netherlands
  • List of Countries
  • For 7 days
  • Water Temperature
  • Satellite Maps
  • Weather Map
  • Weather Widgets
  • user-avatar
    Login

    Hourly Weather Neuquén

    Today, 18 August, Friday

    Time Temperature Precipitation Wind Pressure Humidity
    00:00 +15°C° 0 mm 5 mps 726 mmHg 40%
    01:00 +15°C° 0 mm 5 mps 725 mmHg 41%
    02:00 +15°C° 0 mm 5 mps 725 mmHg 42%
    03:00 +14°C° 0 mm 5 mps 724 mmHg 43%
    04:00 +14°C° 0 mm 5 mps 724 mmHg 44%
    05:00 +14°C° 0 mm 6 mps 724 mmHg 44%
    06:00 +14°C° 0 mm 6 mps 724 mmHg 44%
    07:00 +14°C° 0 mm 6 mps 725 mmHg 44%
    08:00 +13°C° 0 mm 9 mps 725 mmHg 41%
    09:00 +14°C° 0 mm 11 mps 725 mmHg 38%
    10:00 +15°C° 0 mm 13 mps 726 mmHg 35%
    11:00 +15°C° 0 mm 14 mps 726 mmHg 31%
    12:00 +17°C° 0 mm 15 mps 726 mmHg 28%
    13:00 +16°C° 0 mm 16 mps 725 mmHg 24%
    14:00 +15°C° 0 mm 15 mps 726 mmHg 24%
    15:00 +14°C° 0 mm 15 mps 726 mmHg 24%
    16:00 +14°C° 0 mm 15 mps 726 mmHg 24%
    17:00 +13°C° 0 mm 13 mps 727 mmHg 27%
    18:00 +12°C° 0 mm 12 mps 727 mmHg 31%
    19:00 +11°C° 0 mm 10 mps 728 mmHg 34%
    20:00 +9°C° 0 mm 10 mps 728 mmHg 37%
    21:00 +10°C° 0 mm 9 mps 728 mmHg 39%
    22:00 +8°C° 0 mm 9 mps 729 mmHg 42%
    23:00 +8°C° 0 mm 9 mps 729 mmHg 43%

    Tomorrow, 19 August, Saturday

    Time Temperature Precipitation Wind Pressure Humidity
    00:00 +7°C° 0 mm 8 mps 729 mmHg 44%
    01:00 +7°C° 0 mm 8 mps 729 mmHg 45%
    02:00 +7°C° 0 mm 8 mps 729 mmHg 45%
    03:00 +7°C° 0 mm 8 mps 729 mmHg 46%
    04:00 +6°C° 0 mm 8 mps 729 mmHg 46%
    05:00 +6°C° 0 mm 9 mps 730 mmHg 45%
    06:00 +7°C° 0 mm 10 mps 730 mmHg 43%
    07:00 +7°C° 0 mm 11 mps 731 mmHg 42%
    08:00 +8°C° 0 mm 13 mps 731 mmHg 38%
    09:00 +9°C° 0 mm 15 mps 732 mmHg 33%
    10:00 +10°C° 0 mm 16 mps 733 mmHg 29%
    11:00 +10°C° 0 mm 16 mps 732 mmHg 28%
    12:00 +10°C° 0 mm 16 mps 732 mmHg 26%
    13:00 +11°C° 0 mm 16 mps 732 mmHg 25%
    14:00 +10°C° 0 mm 16 mps 733 mmHg 27%
    15:00 +10°C° 0 mm 15 mps 733 mmHg 28%
    16:00 +9°C° 0 mm 15 mps 734 mmHg 30%
    17:00 +8°C° 0 mm 13 mps 735 mmHg 33%
    18:00 +8°C° 0 mm 12 mps 736 mmHg 36%
    19:00 +7°C° 0 mm 11 mps 737 mmHg 40%
    20:00 +6°C° 0 mm 10 mps 738 mmHg 42%
    21:00 +6°C° 0 mm 9 mps 738 mmHg 43%
    22:00 +5°C° 0 mm 9 mps 739 mmHg 45%
    23:00 +5°C° 0 mm 8 mps 740 mmHg 47%

    Day after tomorrow, 20 August, Sunday

    Time Temperature Precipitation Wind Pressure Humidity
    00:00 +4°C° 0 mm 7 mps 740 mmHg 49%
    01:00 +4°C° 0 mm 6 mps 740 mmHg 51%
    02:00 +3°C° 0 mm 5 mps 740 mmHg 52%
    03:00 +3°C° 0 mm 5 mps 741 mmHg 53%
    04:00 +3°C° 0 mm 5 mps 741 mmHg 53%
    05:00 +3°C° 0 mm 5 mps 741 mmHg 53%
    06:00 +4°C° 0 mm 4 mps 741 mmHg 53%
    07:00 +4°C° 0 mm 4 mps 742 mmHg 53%
    08:00 +5°C° 0 mm 4 mps 741 mmHg 48%
    09:00 +7°C° 0 mm 4 mps 741 mmHg 43%
    10:00 +8°C° 0 mm 4 mps 741 mmHg 38%
    11:00 +9°C° 0 mm 5 mps 740 mmHg 36%
    12:00 +10°C° 0 mm 6 mps 740 mmHg 34%
    13:00 +11°C° 0 mm 6 mps 739 mmHg 32%
    14:00 +13°C° 0 mm 6 mps 738 mmHg 30%
    15:00 +13°C° 0 mm 6 mps 738 mmHg 29%
    16:00 +14°C° 0 mm 5 mps 737 mmHg 28%
    17:00 +13°C° 0 mm 5 mps 737 mmHg 31%
    18:00 +12°C° 0 mm 4 mps 736 mmHg 33%
    19:00 +11°C° 0 mm 4 mps 736 mmHg 36%
    20:00 +11°C° 0 mm 4 mps 736 mmHg 37%
    21:00 +10°C° 0 mm 4 mps 735 mmHg 39%
    22:00 +10°C° 0 mm 4 mps 735 mmHg 40%
    23:00 +10°C° 0 mm 4 mps 734 mmHg 41%

    21 August, Monday

    Time Temperature Precipitation Wind Pressure Humidity
    00:00 +8°C° 0 mm 4 mps 734 mmHg 43%
    01:00 +9°C° 0 mm 3 mps 733 mmHg 44%
    02:00 +9°C° 0 mm 3 mps 732 mmHg 43%
    03:00 +9°C° 0 mm 3 mps 732 mmHg 43%
    04:00 +8°C° 0 mm 3 mps 731 mmHg 42%
    05:00 +9°C° 0 mm 3 mps 731 mmHg 40%
    06:00 +9°C° 0 mm 3 mps 731 mmHg 38%
    07:00 +9°C° 0 mm 2 mps 731 mmHg 36%
    08:00 +12°C° 0 mm 3 mps 730 mmHg 30%
    09:00 +14°C° 0 mm 3 mps 730 mmHg 25%
    10:00 +18°C° 0 mm 4 mps 730 mmHg 19%
    11:00 +20°C° 0 mm 4 mps 729 mmHg 17%
    12:00 +21°C° 0 mm 5 mps 728 mmHg 14%
    13:00 +23°C° 0 mm 5 mps 727 mmHg 12%
    14:00 +23°C° 0 mm 5 mps 727 mmHg 13%
    15:00 +23°C° 0 mm 4 mps 726 mmHg 14%
    16:00 +24°C° 0 mm 3 mps 726 mmHg 14%
    17:00 +22°C° 0 mm 3 mps 725 mmHg 16%
    18:00 +20°C° 0 mm 3 mps 725 mmHg 18%
    19:00 +19°C° 0 mm 3 mps 725 mmHg 20%
    20:00 +19°C° 0 mm 3 mps 724 mmHg 20%
    21:00 +19°C° 0 mm 4 mps 724 mmHg 21%
    22:00 +18°C° 0 mm 4 mps 724 mmHg 22%
    23:00 +18°C° 0 mm 4 mps 723 mmHg 22%

    22 August, Tuesday

    Time Temperature Precipitation Wind Pressure Humidity
    00:00 +17°C° 0 mm 4 mps 723 mmHg 22%
    01:00 +17°C° 0 mm 4 mps 722 mmHg 22%
    02:00 +16°C° 0 mm 5 mps 722 mmHg 22%
    03:00 +15°C° 0 mm 5 mps 721 mmHg 22%
    04:00 +15°C° 0 mm 5 mps 721 mmHg 22%
    05:00 +15°C° 0 mm 6 mps 720 mmHg 21%
    06:00 +16°C° 0 mm 8 mps 720 mmHg 20%
    07:00 +16°C° 0 mm 9 mps 720 mmHg 20%
    08:00 +18°C° 0 mm 13 mps 719 mmHg 16%
    09:00 +22°C° 0 mm 17 mps 719 mmHg 13%
    10:00 +24°C° 0 mm 20 mps 719 mmHg 9%
    11:00 +24°C° 0 mm 22 mps 718 mmHg 10%
    12:00 +25°C° 0 mm 23 mps 717 mmHg 11%
    13:00 +25°C° 0 mm 25 mps 717 mmHg 11%
    14:00 +21°C° 0.2 mm 22 mps 717 mmHg 22%
    15:00 +16°C° 0.2 mm 19 mps 717 mmHg 32%
    16:00 +13°C° 0.2 mm 16 mps 718 mmHg 43%
    17:00 +11°C° 0.3 mm 15 mps 720 mmHg 43%
    18:00 +10°C° 0.3 mm 14 mps 721 mmHg 43%
    19:00 +9°C° 0.3 mm 13 mps 723 mmHg 44%
    20:00 +8°C° 0.1 mm 13 mps 724 mmHg 43%
    21:00 +7°C° 0.1 mm 13 mps 725 mmHg 42%
    22:00 +7°C° 0.1 mm 13 mps 726 mmHg 42%
    23:00 +5°C° 0 mm 13 mps 727 mmHg 40%

    23 August, Wednesday

    Time Temperature Precipitation Wind Pressure Humidity
    00:00 +5°C° 0 mm 12 mps 727 mmHg 38%
    01:00 +5°C° 0 mm 12 mps 728 mmHg 37%
    02:00 +6°C° 0 mm 11 mps 728 mmHg 40%
    03:00 +4°C° 0 mm 11 mps 728 mmHg 42%
    04:00 +5°C° 0 mm 10 mps 729 mmHg 45%
    05:00 +5°C° 0 mm 9 mps 730 mmHg 46%
    06:00 +5°C° 0 mm 8 mps 731 mmHg 47%
    07:00 +4°C° 0 mm 7 mps 732 mmHg 48%
    08:00 +5°C° 0 mm 9 mps 733 mmHg 42%
    09:00 +6°C° 0 mm 10 mps 733 mmHg 36%
    10:00 +7°C° 0 mm 11 mps 734 mmHg 30%
    11:00 +8°C° 0 mm 12 mps 734 mmHg 29%
    12:00 +8°C° 0 mm 13 mps 734 mmHg 27%
    13:00 +9°C° 0 mm 13 mps 734 mmHg 26%
    14:00 +9°C° 0 mm 13 mps 734 mmHg 27%
    15:00 +9°C° 0 mm 13 mps 734 mmHg 28%
    16:00 +9°C° 0 mm 12 mps 734 mmHg 29%
    17:00 +8°C° 0 mm 11 mps 734 mmHg 32%
    18:00 +7°C° 0 mm 9 mps 734 mmHg 35%
    19:00 +8°C° 0 mm 7 mps 734 mmHg 37%
    20:00 +7°C° 0 mm 8 mps 734 mmHg 38%
    21:00 +7°C° 0 mm 9 mps 734 mmHg 38%
    22:00 +7°C° 0 mm 10 mps 734 mmHg 38%
    23:00 +7°C° 0 mm 10 mps 734 mmHg 37%
    Show more